QPF
0.00 0.00 0.00 0.00 0.00 0.00 0.00 0.00 0.00 0.00 0.00 0.00 0.00 0.00 0.00 0.00 0.00 0.00 0.00 0.00 0.00 0.00 0.00 0.00 0.00 0.00 0.00 0.00 0.00 0.00 0.00 0.00 0.00 0.00 0.00 0.00 0.00 0.00 0.00 0.00 0.00 0.00 0.00 0.00 0.00 0.00 0.00
0.00 0.00 0.00 0.00 0.00 0.00 0.00 0.00 0.00 0.00 0.00 0.00 0.00 0.00 0.00 0.00 0.00 0.00 0.00 0.00 0.00 0.00 0.00 0.00 0.00 0.00 0.00 0.00 0.00 0.00 0.00 0.00 0.00 0.00 0.00 0.00 0.00 0.00 0.00 0.00 0.00 0.00 0.00 0.00 0.00 0.00 0.00
0.00 0.00 0.00 0.00 0.00 0.00 0.00 0.00 0.00 0.00 0.00 0.00 0.00 0.00 0.00 0.00 0.00 0.00 0.00 0.00 0.00 0.00 0.00 0.00 0.00 0.00 0.00 0.00 0.00 0.00 0.00 0.00 0.00 0.00 0.00 0.00 0.00 0.00 0.00 0.00 0.00 0.00 0.00 0.00 0.00 0.00 0.00
0.00 0.00 0.00 0.00 0.00 0.00 0.00 0.00 0.00 0.00 0.00 0.00 0.00 0.00 0.00 0.00 0.00 0.00 0.00 0.00 0.00 0.00 0.00 0.00 0.00 0.00 0.00 0.00 0.00 0.00 0.00 0.00 0.00 0.00 0.00 0.00 0.00 0.00 0.00 0.00 0.00 0.00 0.00 0.00 0.00 0.00 0.00
0.00 0.00 0.00 0.00 0.00 0.00 0.00 0.00 0.00 0.00 0.00 0.00 0.00 0.00 0.00 0.00 0.00 0.00 0.00 0.00 0.00 0.00 0.00 0.00 0.00 0.00 0.00 0.00 0.00 0.00 0.00 0.00 0.00 0.00 0.00 0.00 0.00 0.00 0.00 0.00 0.00 0.00 0.00 0.00 0.00 0.00 0.00
0.00 0.00 0.00 0.00 0.00 0.00 0.00 0.00 0.00 0.00 0.00 0.00 0.00 0.00 0.00 0.00 0.00 0.00 0.00 0.00 0.00 0.00 0.00 0.00 0.00 0.00 0.00 0.00 0.00 0.00 0.00 0.00 0.00 0.00 0.00 0.00 0.00 0.00 0.00 0.00 0.00 0.00 0.00 0.00 0.00 0.00 0.00
0.00 0.00 0.00 0.00 0.00 0.00 0.00 0.00 0.00 0.00 0.00 0.00 0.00 0.00 0.00 0.00 0.00 0.00 0.00 0.00 0.00 0.00 0.00 0.00 0.00 0.00 0.00 0.00 0.00 0.00 0.00 0.00 0.00 0.00 0.00 0.00 0.00 0.00 0.00 0.00 0.00 0.00 0.00 0.00 0.00 0.00 0.00
0.00 0.00 0.00 0.00 0.00 0.00 0.00 0.00 0.00 0.00 0.00 0.00 0.00 0.00 0.00 0.00 0.00 0.00 0.00 0.00 0.00 0.00 0.00 0.00 0.00 0.00 0.00 0.00 0.00 0.00 0.00 0.00 0.00 0.00 0.00 0.00 0.00 0.00 0.00 0.00 0.00 0.00 0.00 0.00 0.00 0.00 0.00
0.00 0.00 0.00 0.00 0.00 0.00 0.00 0.00 0.00 0.00 0.00 0.00 0.00 0.00 0.00 0.00 0.00 0.00 0.00 0.00 0.00 0.00 0.00 0.00 0.00 0.00 0.00 0.00 0.00 0.00 0.00 0.00 0.00 0.00 0.00 0.00 0.00 0.00 0.00 0.00 0.00 0.00 0.00 0.00 0.00 0.00 0.00
0.00 0.00 0.00 0.00 0.00 0.00 0.00 0.00 0.00 0.00 0.00 0.00 0.00 0.00 0.00 0.00 0.00 0.00 0.00 0.00 0.00 0.00 0.00 0.00 0.00 0.00 0.00 0.00 0.00 0.00 0.00 0.00 0.00 0.00 0.00 0.00 0.00 0.00 0.00 0.00 0.00 0.00 0.00 0.00 0.00 0.00 0.00
0.00 0.00 0.00 0.00 0.00 0.00 0.00 0.00 0.00 0.00 0.00 0.00 0.00 0.00 0.00 0.00 0.00 0.00 0.00 0.00 0.00 0.00 0.00 0.00 0.00 0.00 0.00 0.00 0.00 0.00 0.00 0.00 0.00 0.00 0.00 0.00 0.00 0.00 0.00 0.00 0.00 0.00 0.00 0.00 0.00 0.00 0.00
0.00 0.00 0.00 0.00 0.00 0.00 0.00 0.00 0.00 0.00 0.00 0.00 0.00 0.00 0.00 0.00 0.00 0.00 0.00 0.00 0.00 0.00 0.00 0.00 0.00 0.00 0.00 0.00 0.00 0.00 0.00 0.00 0.00 0.00 0.00 0.00 0.00 0.00 0.00 0.00 0.00 0.00 0.00 0.00 0.00 0.00 0.00
0.00 0.00 0.00 0.00 0.00 0.00 0.00 0.00 0.00 0.00 0.00 0.00 0.00 0.00 0.00 0.00 0.00 0.00 0.00 0.00 0.00 0.00 0.00 0.00 0.00 0.00 0.00 0.00 0.00 0.00 0.00 0.00 0.00 0.00 0.00 0.00 0.00 0.00 0.00 0.00 0.00 0.00 0.00 0.00 0.00 0.00 0.00
0.00 0.00 0.00 0.00 0.00 0.00 0.00 0.00 0.00 0.00 0.00 0.00 0.00 0.00 0.00 0.00 0.00 0.00 0.00 0.00 0.00 0.00 0.00 0.00 0.00 0.00 0.00 0.00 0.00 0.00 0.00 0.00 0.00 0.00 0.00 0.00 0.00 0.00 0.00 0.00 0.00 0.00 0.00 0.00 0.00 0.00 0.00
0.02 0.01 0.00 0.00 0.00 0.00 0.00 0.00 0.00 0.00 0.00 0.00 0.00 0.00 0.00 0.00 0.00 0.00 0.00 0.00 0.00 0.00 0.00 0.00 0.00 0.00 0.00 0.00 0.00 0.00 0.00 0.00 0.00 0.00 0.00 0.00 0.00 0.00 0.00 0.00 0.00 0.00 0.00 0.00 0.00 0.00 0.00
0.06 0.08 0.06 0.04 0.01 0.00 0.00 0.00 0.00 0.00 0.00 0.00 0.00 0.00 0.00 0.00 0.00 0.00 0.00 0.00 0.00 0.00 0.00 0.00 0.00 0.00 0.00 0.00 0.00 0.00 0.00 0.00 0.00 0.00 0.00 0.00 0.00 0.00 0.00 0.00 0.00 0.00 0.00 0.00 0.00 0.00 0.00
0.01 0.07 0.09 0.06 0.01 0.00 0.00 0.00 0.00 0.00 0.00 0.00 0.00 0.00 0.00 0.00 0.00 0.00 0.00 0.00 0.00 0.00 0.00 0.00 0.00 0.00 0.00 0.00 0.00 0.00 0.00 0.00 0.00 0.00 0.00 0.00 0.00 0.00 0.00 0.00 0.00 0.00 0.00 0.00 0.00 0.00 0.00
0.02 0.05 0.08 0.05 0.02 0.00 0.00 0.00 0.00 0.00 0.00 0.00 0.00 0.00 0.00 0.00 0.00 0.00 0.00 0.00 0.00 0.00 0.00 0.00 0.00 0.00 0.00 0.00 0.00 0.00 0.00 0.00 0.00 0.00 0.00 0.00 0.00 0.00 0.00 0.00 0.00 0.00 0.00 0.00 0.00 0.00 0.00
0.04 0.08 0.10 0.07 0.03 0.01 0.00 0.00 0.00 0.00 0.00 0.00 0.00 0.00 0.00 0.00 0.00 0.00 0.00 0.00 0.00 0.00 0.00 0.00 0.00 0.00 0.00 0.00 0.00 0.00 0.00 0.00 0.00 0.00 0.00 0.00 0.00 0.00 0.00 0.00 0.00 0.00 0.00 0.00 0.00 0.00 0.00
0.07 0.08 0.07 0.04 0.02 0.00 0.00 0.00 0.00 0.00 0.00 0.00 0.00 0.00 0.00 0.00 0.00 0.00 0.00 0.00 0.00 0.00 0.00 0.00 0.00 0.00 0.00 0.00 0.00 0.00 0.00 0.00 0.00 0.00 0.00 0.00 0.00 0.00 0.00 0.00 0.00 0.00 0.00 0.00 0.00 0.00 0.00
0.05 0.08 0.09 0.05 0.01 0.00 0.00 0.00 0.00 0.00 0.00 0.00 0.00 0.00 0.00 0.00 0.00 0.00 0.00 0.00 0.00 0.00 0.00 0.00 0.00 0.00 0.00 0.00 0.00 0.00 0.00 0.00 0.00 0.00 0.00 0.00 0.00 0.00 0.00 0.00 0.00 0.00 0.00 0.00 0.00 0.00 0.00
0.03 0.07 0.07 0.03 0.01 0.00 0.00 0.00 0.00 0.00 0.00 0.00 0.00 0.00 0.00 0.00 0.00 0.00 0.00 0.00 0.00 0.00 0.00 0.00 0.00 0.00 0.00 0.00 0.00 0.00 0.00 0.00 0.00 0.00 0.00 0.00 0.00 0.00 0.00 0.00 0.00 0.00 0.00 0.00 0.00 0.00 0.00
0.01 0.03 0.05 0.04 0.02 0.01 0.00 0.00 0.00 0.00 0.00 0.00 0.00 0.00 0.00 0.00 0.00 0.00 0.00 0.00 0.00 0.00 0.00 0.00 0.00 0.00 0.00 0.00 0.00 0.00 0.00 0.00 0.00 0.00 0.00 0.00 0.00 0.00 0.00 0.00 0.00 0.00 0.00 0.00 0.00 0.00 0.00
0.01 0.03 0.03 0.03 0.01 0.00 0.00 0.00 0.00 0.00 0.00 0.00 0.00 0.00 0.00 0.00 0.00 0.00 0.00 0.00 0.00 0.00 0.00 0.00 0.00 0.00 0.00 0.00 0.00 0.00 0.00 0.00 0.00 0.00 0.00 0.00 0.00 0.00 0.00 0.00 0.00 0.00 0.00 0.00 0.00 0.00 0.00
0.01 0.02 0.04 0.04 0.03 0.01 0.00 0.00 0.00 0.00 0.00 0.00 0.00 0.00 0.00 0.00 0.00 0.00 0.00 0.00 0.00 0.00 0.00 0.00 0.00 0.00 0.00 0.00 0.00 0.00 0.00 0.00 0.00 0.00 0.00 0.00 0.00 0.00 0.00 0.00 0.00 0.00 0.00 0.00 0.00 0.00 0.00
0.02 0.03 0.03 0.04 0.02 0.01 0.00 0.00 0.00 0.00 0.00 0.00 0.00 0.00 0.00 0.00 0.00 0.00 0.00 0.00 0.00 0.00 0.00 0.00 0.00 0.00 0.00 0.00 0.00 0.00 0.00 0.00 0.00 0.00 0.00 0.00 0.00 0.00 0.00 0.00 0.00 0.00 0.00 0.00 0.00 0.00 0.00
0.01 0.01 0.02 0.01 0.02 0.01 0.00 0.00 0.00 0.00 0.00 0.00 0.00 0.00 0.00 0.00 0.00 0.00 0.00 0.00 0.00 0.00 0.00 0.00 0.00 0.00 0.00 0.00 0.00 0.00 0.00 0.00 0.00 0.00 0.00 0.00 0.00 0.00 0.00 0.00 0.00 0.00 0.00 0.00 0.00 0.01 0.00
0.02 0.03 0.03 0.01 0.01 0.01 0.01 0.00 0.00 0.00 0.00 0.00 0.00 0.00 0.00 0.00 0.00 0.00 0.00 0.00 0.00 0.00 0.00 0.00 0.00 0.00 0.00 0.00 0.00 0.00 0.00 0.00 0.00 0.00 0.00 0.00 0.00 0.00 0.00 0.00 0.00 0.00 0.00 0.00 0.01 0.00 0.00
0.03 0.04 0.04 0.03 0.01 0.00 0.00 0.00 0.00 0.00 0.00 0.00 0.00 0.00 0.00 0.00 0.00 0.00 0.00 0.00 0.00 0.00 0.00 0.00 0.00 0.00 0.00 0.00 0.00 0.00 0.00 0.00 0.00 0.00 0.00 0.00 0.00 0.00 0.00 0.00 0.01 0.00 0.00 0.00 0.00 0.00 0.00
MSLP
1024.29 1024.18 1024.02 1023.82 1023.61 1023.43 1023.25 1023.01 1022.80 1022.48 1022.14 1021.82 1021.51 1021.25 1020.99 1020.68 1020.35 1020.02 1019.71 1019.35 1019.00 1018.69 1018.34 1018.08 1017.74 1017.39 1016.94 1016.80 1016.06 1014.88 1014.88 1014.93 1014.92 1015.04 1015.31 1015.53 1015.86 1016.17 1016.47 1016.38 1016.22 1015.81 1014.78 1013.97 1013.22 1012.87 1012.68
1024.28 1024.09 1023.94 1023.73 1023.66 1023.55 1023.35 1023.06 1022.89 1022.63 1022.27 1021.93 1021.58 1021.19 1020.81 1020.50 1020.15 1019.82 1019.44 1019.01 1018.66 1018.35 1018.22 1018.00 1017.80 1017.43 1017.16 1016.43 1014.90 1014.81 1014.95 1014.86 1014.87 1015.07 1015.21 1015.43 1015.58 1015.87 1016.35 1016.29 1016.31 1015.19 1014.67 1013.57 1012.65 1012.01 1012.06
1024.51 1024.25 1024.06 1023.94 1023.84 1023.71 1023.47 1023.22 1022.92 1022.61 1022.36 1022.06 1021.71 1021.36 1020.93 1020.49 1020.02 1019.58 1019.09 1018.66 1018.24 1018.04 1017.91 1017.94 1017.80 1017.61 1017.22 1015.99 1014.93 1014.92 1014.89 1014.71 1014.69 1014.84 1015.07 1015.07 1015.21 1015.88 1016.13 1016.12 1015.59 1015.17 1014.82 1013.32 1012.25 1011.70 1011.41
1024.57 1024.45 1024.33 1024.13 1023.87 1023.55 1023.35 1023.20 1022.96 1022.64 1022.39 1022.13 1021.77 1021.42 1021.01 1020.60 1020.06 1019.50 1018.85 1018.23 1017.86 1017.66 1017.60 1017.61 1017.66 1017.62 1016.57 1015.01 1014.90 1014.94 1014.69 1014.56 1014.51 1014.58 1014.83 1014.82 1015.11 1015.74 1016.14 1015.90 1015.53 1015.51 1015.19 1014.35 1012.54 1011.89 1011.29
1024.45 1024.35 1024.30 1024.12 1023.87 1023.73 1023.49 1023.26 1022.90 1022.62 1022.25 1022.00 1021.72 1021.16 1020.76 1020.26 1019.73 1019.08 1018.42 1017.70 1017.35 1017.31 1017.30 1017.48 1017.69 1017.42 1016.07 1014.79 1014.90 1014.95 1014.96 1014.91 1014.58 1014.67 1014.62 1014.79 1015.25 1015.89 1016.15 1016.66 1016.54 1016.32 1015.99 1014.82 1013.28 1012.11 1011.83
1024.29 1024.37 1024.31 1024.13 1023.86 1023.77 1023.63 1023.37 1023.10 1022.80 1022.59 1022.16 1021.48 1021.05 1020.55 1020.02 1019.38 1018.69 1017.98 1017.42 1017.25 1017.31 1017.36 1017.45 1017.50 1017.63 1016.00 1015.70 1015.42 1015.09 1014.83 1014.89 1014.95 1014.89 1015.10 1015.36 1015.97 1016.46 1016.85 1017.26 1017.54 1017.03 1016.30 1015.18 1014.07 1012.77 1012.22
1024.21 1024.26 1024.23 1024.02 1023.87 1023.70 1023.55 1023.43 1023.20 1022.85 1022.48 1022.00 1021.59 1021.27 1020.84 1020.17 1019.41 1018.60 1017.88 1017.56 1018.13 1018.03 1017.85 1017.80 1017.51 1017.04 1016.29 1015.85 1015.45 1015.15 1015.04 1014.98 1015.20 1015.59 1016.24 1016.25 1017.04 1017.17 1017.06 1017.06 1017.03 1016.82 1016.37 1015.47 1013.84 1013.03 1012.68
1024.17 1024.16 1024.11 1023.99 1023.86 1023.75 1023.46 1023.31 1023.18 1022.95 1022.42 1021.89 1021.57 1021.11 1020.63 1020.20 1019.85 1019.07 1018.81 1019.88 1020.61 1020.88 1019.32 1017.59 1017.35 1016.92 1016.32 1016.22 1016.09 1015.40 1015.19 1015.59 1015.96 1016.53 1016.67 1016.92 1017.04 1016.71 1016.55 1016.34 1016.49 1016.15 1016.07 1015.39 1014.03 1013.19 1013.03
1023.98 1024.08 1023.99 1023.98 1023.90 1023.75 1023.61 1023.36 1023.14 1022.91 1022.57 1022.16 1021.65 1021.04 1020.56 1020.07 1019.48 1019.56 1020.09 1020.86 1020.78 1020.71 1020.30 1017.91 1016.94 1016.65 1016.23 1016.28 1016.24 1015.77 1015.65 1016.05 1016.47 1016.74 1017.17 1017.50 1016.72 1016.39 1016.40 1016.26 1016.19 1015.91 1016.00 1015.57 1015.42 1013.92 1013.29
1023.71 1023.81 1023.94 1023.80 1023.67 1023.70 1023.66 1023.50 1023.18 1022.79 1022.54 1022.26 1021.98 1021.41 1020.70 1019.87 1019.87 1020.46 1020.84 1020.81 1020.89 1020.77 1020.07 1017.87 1016.92 1016.32 1016.21 1016.13 1016.18 1015.71 1015.82 1016.33 1016.57 1017.08 1017.24 1017.26 1016.61 1016.65 1016.32 1016.29 1016.50 1016.08 1015.65 1015.65 1015.34 1015.04 1015.04
1023.49 1023.55 1023.67 1023.74 1023.67 1023.64 1023.46 1023.39 1023.25 1022.94 1022.46 1022.25 1021.94 1021.53 1020.96 1020.38 1020.81 1020.89 1021.29 1020.94 1020.70 1020.95 1020.48 1017.94 1016.76 1016.15 1016.16 1016.57 1016.39 1015.99 1016.05 1016.12 1016.78 1017.29 1017.83 1017.24 1016.93 1016.72 1016.54 1016.31 1016.44 1016.06 1015.64 1015.68 1015.69 1015.74 1015.84
1023.04 1023.30 1023.33 1023.43 1023.59 1023.59 1023.38 1023.44 1023.23 1022.89 1022.54 1022.21 1021.92 1021.56 1021.09 1021.01 1021.14 1021.35 1021.18 1021.04 1021.10 1020.76 1019.20 1017.57 1016.80 1016.58 1016.66 1016.51 1016.46 1016.15 1016.33 1016.51 1016.72 1017.26 1017.74 1017.74 1017.03 1017.00 1016.73 1016.16 1016.22 1015.91 1015.79 1016.06 1016.49 1016.74 1017.15
1022.53 1022.93 1023.08 1023.24 1023.27 1023.54 1023.48 1023.21 1023.17 1022.92 1022.63 1022.28 1021.78 1021.46 1021.31 1021.39 1021.65 1021.30 1021.09 1021.21 1021.61 1020.41 1018.83 1018.04 1017.43 1017.20 1017.39 1017.13 1016.82 1016.73 1016.98 1017.43 1018.11 1018.26 1018.66 1018.22 1017.40 1017.07 1016.94 1016.51 1016.21 1016.51 1016.72 1017.88 1018.19 1018.43 1018.54
1022.16 1022.39 1022.78 1022.99 1023.11 1023.30 1023.49 1023.29 1023.17 1022.90 1022.59 1022.24 1021.63 1021.21 1021.40 1021.37 1021.36 1021.31 1021.47 1021.61 1021.33 1019.75 1018.72 1018.13 1017.79 1017.59 1017.72 1017.53 1017.36 1017.39 1017.68 1018.29 1018.61 1019.13 1019.93 1019.95 1018.33 1017.74 1017.62 1017.81 1017.95 1018.21 1018.68 1019.84 1020.30 1020.46 1019.56
1021.64 1022.04 1022.33 1022.63 1022.86 1023.05 1023.13 1023.07 1023.03 1022.91 1022.61 1022.21 1021.52 1021.63 1021.62 1021.58 1021.37 1021.48 1021.54 1021.99 1020.64 1019.65 1019.11 1018.65 1018.04 1018.16 1018.17 1018.03 1018.09 1018.01 1018.20 1018.60 1018.90 1019.25 1019.92 1020.09 1019.22 1018.15 1017.86 1017.91 1018.15 1018.27 1019.23 1019.77 1020.38 1020.78 1020.59
1021.00 1021.56 1021.90 1022.31 1022.45 1022.79 1022.86 1022.87 1022.87 1022.73 1022.44 1022.32 1022.31 1022.27 1022.02 1021.71 1021.52 1021.70 1022.13 1021.57 1020.53 1019.67 1019.17 1018.99 1018.98 1018.82 1018.91 1018.61 1018.65 1018.54 1018.42 1018.66 1018.89 1019.17 1019.59 1020.13 1020.12 1018.88 1018.24 1018.05 1018.30 1018.39 1019.12 1019.89 1020.75 1021.63 1021.32
1020.35 1020.86 1021.38 1021.85 1022.25 1022.51 1022.63 1022.84 1022.78 1022.55 1022.41 1022.32 1022.65 1022.65 1021.96 1021.72 1021.80 1021.99 1022.67 1021.82 1020.59 1019.69 1019.35 1019.20 1019.17 1019.27 1019.10 1019.09 1019.06 1018.94 1018.79 1018.80 1018.84 1019.22 1019.56 1020.17 1020.72 1019.67 1019.07 1018.98 1019.20 1019.10 1019.36 1020.33 1021.35 1022.09 1022.40
1019.56 1020.07 1020.74 1021.28 1021.69 1022.17 1022.48 1022.58 1022.64 1022.52 1022.44 1022.38 1022.96 1022.97 1022.31 1021.92 1022.63 1022.63 1022.35 1021.43 1020.42 1019.81 1019.46 1019.27 1019.32 1019.46 1019.44 1019.47 1019.40 1019.25 1019.18 1018.88 1018.91 1019.20 1019.79 1020.45 1021.11 1021.13 1020.19 1019.55 1019.50 1019.56 1019.91 1020.72 1021.97 1022.71 1022.88
1018.87 1019.35 1019.85 1020.57 1021.10 1021.47 1022.12 1022.30 1022.49 1022.52 1022.42 1023.11 1023.21 1023.08 1022.47 1022.34 1023.01 1022.90 1021.84 1021.03 1020.40 1020.02 1019.90 1019.72 1019.56 1019.51 1019.60 1019.74 1019.87 1019.57 1019.23 1019.06 1019.21 1019.53 1019.82 1020.44 1021.31 1021.60 1020.59 1020.29 1019.94 1019.93 1020.22 1020.89 1022.02 1022.67 1022.92
1018.09 1018.63 1019.14 1019.79 1020.50 1020.84 1021.59 1021.94 1022.33 1022.51 1022.34 1022.90 1023.59 1023.50 1023.09 1023.13 1023.12 1022.87 1021.96 1021.17 1020.32 1019.98 1019.99 1020.07 1020.05 1019.92 1020.05 1020.11 1020.19 1020.12 1019.90 1019.58 1019.71 1019.76 1019.86 1020.41 1021.48 1021.95 1022.11 1021.04 1021.02 1020.75 1020.73 1021.18 1022.03 1022.91 1022.64
1017.54 1018.05 1018.43 1019.12 1019.78 1020.36 1021.00 1021.62 1021.95 1022.35 1022.27 1023.00 1023.80 1023.67 1023.52 1023.65 1023.12 1022.71 1022.24 1021.53 1020.75 1020.30 1020.07 1020.15 1020.44 1020.45 1020.61 1020.86 1020.91 1020.89 1020.62 1020.47 1020.07 1020.04 1020.49 1021.11 1021.65 1021.96 1021.91 1021.50 1021.25 1020.82 1020.62 1021.26 1021.91 1022.01 1022.62
1016.88 1017.47 1017.93 1018.49 1019.28 1019.74 1020.51 1021.20 1021.67 1021.93 1022.14 1022.95 1023.52 1023.59 1023.68 1023.47 1023.04 1022.69 1022.19 1021.67 1021.09 1020.57 1020.53 1020.59 1020.72 1020.85 1021.08 1021.27 1021.27 1021.42 1021.53 1021.72 1021.31 1021.07 1021.27 1021.83 1021.98 1022.16 1022.02 1021.31 1021.16 1020.85 1020.28 1020.70 1021.43 1022.02 1022.19
1016.43 1017.03 1017.51 1018.01 1018.76 1019.32 1020.02 1020.87 1021.16 1021.41 1021.96 1022.63 1023.23 1023.17 1022.98 1023.36 1022.95 1022.82 1022.12 1021.25 1021.36 1021.17 1020.91 1020.90 1021.19 1021.47 1021.55 1021.44 1021.33 1021.39 1021.45 1021.51 1021.16 1021.40 1022.12 1022.57 1022.74 1023.04 1022.34 1021.98 1021.54 1020.95 1020.38 1020.70 1022.12 1023.03 1023.35
1015.71 1016.37 1017.11 1017.64 1018.40 1018.90 1019.68 1020.58 1020.70 1020.96 1021.68 1022.25 1022.66 1022.99 1023.36 1023.22 1022.86 1022.18 1021.88 1021.74 1021.64 1021.52 1021.62 1021.39 1021.53 1021.81 1021.78 1021.59 1021.49 1021.27 1021.34 1020.79 1020.86 1020.99 1021.51 1021.98 1022.67 1022.99 1022.82 1022.38 1022.19 1022.14 1021.12 1021.44 1023.03 1024.45 1024.98
1015.14 1015.71 1016.36 1017.15 1017.96 1018.65 1019.38 1019.95 1020.32 1020.52 1021.43 1022.03 1022.41 1022.68 1022.89 1022.87 1022.40 1021.98 1021.72 1022.00 1021.97 1022.15 1022.28 1022.04 1021.91 1021.95 1022.02 1022.14 1022.29 1022.04 1021.63 1021.23 1020.78 1021.07 1021.36 1021.88 1022.79 1023.36 1023.44 1023.25 1022.24 1022.31 1022.62 1023.24 1023.91 1025.86 1026.55
1014.48 1015.10 1015.85 1016.56 1017.49 1018.23 1018.91 1019.53 1020.00 1020.39 1020.99 1021.90 1022.22 1022.26 1022.53 1022.91 1022.15 1021.64 1021.80 1022.05 1022.44 1022.81 1022.98 1022.33 1022.06 1022.02 1022.19 1022.73 1023.07 1023.23 1022.74 1022.10 1021.90 1021.44 1021.58 1022.08 1022.73 1023.46 1024.14 1024.27 1023.72 1023.74 1024.00 1024.44 1024.99 1026.60 1027.81
1013.76 1014.61 1015.22 1016.08 1017.01 1017.72 1018.42 1019.07 1019.54 1020.25 1020.69 1021.51 1021.93 1021.87 1022.28 1022.73 1022.01 1021.65 1021.79 1022.15 1022.25 1022.76 1023.19 1022.87 1022.62 1022.45 1022.56 1022.96 1023.22 1023.17 1022.86 1022.43 1022.41 1022.31 1022.45 1023.26 1023.92 1024.31 1024.66 1025.03 1024.85 1025.80 1025.23 1024.82 1026.48 1028.85 1028.68
1013.03 1013.97 1014.75 1015.58 1016.48 1017.16 1017.83 1018.69 1019.14 1019.84 1020.49 1021.07 1021.91 1021.76 1022.16 1022.44 1022.34 1021.99 1021.83 1022.13 1022.49 1022.38 1022.79 1022.84 1023.09 1022.96 1023.24 1023.53 1023.48 1023.21 1023.15 1022.80 1022.97 1022.91 1023.05 1023.80 1024.73 1025.38 1026.01 1026.72 1027.11 1027.03 1026.47 1027.86 1030.05 1029.48 1029.52
1012.54 1013.28 1014.09 1015.20 1016.08 1016.84 1017.55 1018.21 1018.92 1019.46 1020.19 1020.68 1021.47 1021.51 1021.77 1022.24 1022.68 1022.54 1022.57 1022.57 1022.60 1022.73 1022.89 1022.89 1023.02 1023.05 1023.06 1023.43 1023.75 1023.89 1023.78 1023.65 1023.79 1024.14 1024.06 1025.54 1026.35 1026.63 1027.31 1027.77 1028.66 1029.43 1029.81 1030.57 1030.68 1030.53 1030.51
Thickness
5651 5650 5651 5651 5652 5652 5651 5651 5651 5652 5652 5653 5654 5653 5653 5653 5652 5651 5649 5649 5648 5646 5645 5643 5641 5638 5637 5628 5624 5635 5629 5623 5617 5608 5596 5586 5576 5565 5554 5548 5542 5535 5541 5544 5547 5546 5545
5651 5652 5652 5653 5652 5651 5650 5651 5650 5650 5651 5651 5652 5653 5653 5653 5653 5652 5651 5651 5649 5648 5644 5642 5639 5637 5633 5622 5640 5635 5628 5623 5615 5605 5595 5586 5577 5568 5555 5548 5542 5546 5541 5545 5548 5549 5548
5648 5649 5650 5650 5649 5648 5648 5649 5649 5649 5649 5649 5649 5649 5650 5651 5652 5653 5653 5652 5652 5649 5646 5641 5638 5635 5630 5627 5638 5634 5628 5622 5615 5606 5594 5589 5581 5567 5558 5548 5549 5544 5535 5544 5551 5552 5550
5646 5646 5646 5647 5647 5649 5649 5648 5648 5647 5647 5647 5647 5646 5647 5647 5649 5650 5653 5655 5654 5652 5648 5643 5639 5634 5627 5643 5639 5632 5626 5621 5616 5609 5598 5592 5583 5569 5558 5552 5548 5541 5538 5529 5549 5550 5555
5647 5646 5646 5646 5646 5646 5645 5645 5646 5647 5647 5647 5646 5648 5648 5649 5650 5652 5654 5657 5656 5653 5649 5643 5638 5634 5630 5644 5634 5631 5625 5615 5612 5606 5599 5592 5580 5566 5556 5540 5529 5527 5522 5531 5539 5550 5547
5646 5645 5644 5646 5646 5644 5643 5642 5642 5642 5641 5643 5647 5647 5648 5649 5651 5653 5655 5657 5654 5650 5646 5641 5636 5629 5639 5629 5630 5627 5625 5618 5609 5602 5593 5585 5566 5555 5544 5532 5523 5524 5524 5528 5531 5544 5541
5644 5643 5643 5643 5643 5642 5641 5639 5639 5638 5639 5641 5642 5642 5642 5644 5647 5650 5654 5652 5642 5642 5639 5636 5634 5630 5630 5631 5631 5626 5622 5615 5606 5593 5578 5576 5558 5549 5547 5542 5537 5529 5525 5524 5538 5544 5537
5643 5642 5641 5640 5639 5639 5639 5638 5636 5634 5636 5639 5638 5638 5639 5639 5638 5642 5642 5626 5620 5615 5621 5634 5630 5628 5630 5628 5616 5621 5620 5607 5596 5583 5577 5568 5561 5563 5555 5554 5545 5541 5533 5529 5536 5543 5538
5642 5639 5639 5637 5637 5636 5635 5634 5632 5632 5632 5633 5634 5635 5635 5636 5638 5634 5626 5617 5615 5612 5609 5626 5631 5627 5627 5625 5615 5613 5613 5602 5591 5582 5574 5565 5572 5567 5560 5554 5548 5542 5537 5533 5527 5537 5543
5641 5639 5637 5636 5636 5634 5631 5630 5630 5630 5629 5628 5627 5628 5630 5634 5630 5622 5615 5613 5609 5607 5602 5625 5624 5626 5624 5620 5613 5616 5610 5600 5590 5579 5571 5567 5573 5565 5560 5557 5547 5535 5547 5538 5534 5533 5528
5639 5638 5636 5633 5632 5631 5630 5628 5627 5626 5626 5624 5623 5623 5624 5625 5619 5616 5610 5608 5605 5600 5564 5621 5621 5627 5621 5611 5609 5611 5606 5601 5588 5579 5569 5572 5568 5563 5560 5559 5549 5548 5546 5542 5543 5537 5534
5638 5635 5634 5632 5630 5627 5627 5624 5623 5623 5622 5621 5619 5617 5618 5615 5612 5608 5605 5604 5599 5583 5568 5609 5616 5611 5608 5608 5606 5605 5600 5596 5592 5582 5569 5565 5566 5565 5561 5559 5557 5553 5551 5547 5531 5526 5513
5637 5633 5630 5629 5628 5624 5623 5622 5620 5618 5617 5616 5615 5613 5610 5607 5603 5603 5603 5596 5570 5567 5607 5605 5601 5601 5593 5595 5596 5595 5587 5575 5566 5557 5555 5555 5565 5562 5561 5558 5559 5548 5535 5512 5516 5509 5515
5634 5632 5627 5624 5624 5622 5619 5617 5615 5615 5613 5612 5612 5612 5606 5602 5601 5599 5595 5588 5583 5598 5599 5600 5597 5593 5590 5588 5591 5584 5580 5564 5565 5553 5533 5526 5532 5553 5553 5550 5542 5536 5529 5496 5519 5506 5506
5631 5628 5625 5622 5619 5618 5616 5614 5611 5610 5609 5609 5611 5606 5600 5598 5596 5594 5588 5562 5579 5589 5594 5588 5590 5586 5582 5584 5579 5574 5568 5561 5559 5553 5544 5531 5540 5550 5552 5550 5546 5542 5521 5528 5517 5510 5501
5631 5625 5622 5618 5616 5613 5613 5611 5608 5607 5606 5604 5601 5597 5594 5593 5592 5587 5576 5582 5587 5590 5588 5584 5578 5579 5571 5570 5568 5563 5562 5561 5557 5553 5544 5541 5527 5545 5547 5548 5546 5543 5537 5523 5502 5515 5515
5629 5624 5619 5615 5611 5609 5608 5605 5604 5603 5601 5599 5594 5594 5592 5590 5586 5576 5568 5567 5582 5587 5585 5582 5576 5569 5569 5564 5561 5558 5557 5557 5554 5548 5542 5535 5525 5535 5538 5538 5533 5528 5530 5517 5505 5501 5502
5628 5623 5618 5614 5610 5605 5603 5600 5598 5597 5596 5595 5585 5588 5587 5586 5575 5551 5569 5577 5584 5582 5579 5576 5571 5565 5562 5558 5554 5553 5548 5550 5550 5544 5536 5529 5511 5507 5531 5534 5530 5530 5532 5512 5500 5500 5487
5626 5622 5618 5612 5607 5604 5600 5596 5592 5591 5590 5584 5582 5576 5580 5578 5570 5561 5569 5577 5578 5576 5570 5567 5565 5563 5559 5553 5547 5546 5547 5549 5543 5539 5535 5527 5511 5496 5524 5529 5529 5530 5529 5520 5499 5489 5491
5624 5620 5616 5611 5605 5603 5596 5591 5587 5584 5584 5578 5572 5576 5571 5563 5553 5566 5572 5573 5574 5572 5566 5560 5557 5555 5551 5546 5542 5538 5538 5541 5535 5535 5534 5527 5507 5507 5490 5521 5517 5512 5516 5518 5506 5479 5497
5620 5617 5612 5607 5604 5598 5592 5586 5582 5577 5577 5570 5560 5567 5563 5562 5561 5561 5563 5563 5566 5566 5563 5557 5551 5547 5543 5537 5534 5530 5532 5528 5531 5530 5523 5517 5511 5488 5499 5500 5504 5509 5510 5501 5488 5502 5503
5616 5610 5607 5603 5597 5594 5589 5582 5575 5572 5570 5563 5559 5558 5549 5549 5552 5557 5557 5557 5557 5560 5557 5552 5546 5541 5536 5532 5532 5523 5524 5515 5515 5519 5513 5499 5505 5504 5499 5507 5504 5508 5512 5505 5501 5501 5496
5610 5604 5601 5598 5592 5588 5583 5576 5572 5568 5564 5557 5549 5549 5553 5546 5544 5543 5544 5555 5551 5551 5551 5544 5537 5528 5524 5523 5526 5520 5514 5512 5519 5514 5501 5495 5489 5490 5502 5501 5503 5510 5529 5513 5488 5473 5475
5607 5600 5594 5591 5585 5582 5577 5568 5567 5563 5558 5553 5548 5543 5540 5545 5536 5541 5550 5547 5543 5543 5539 5537 5531 5523 5525 5518 5515 5515 5505 5509 5508 5506 5502 5497 5485 5482 5480 5495 5484 5493 5489 5492 5466 5455 5453
5602 5597 5590 5583 5578 5573 5568 5563 5559 5557 5549 5545 5540 5538 5533 5537 5531 5541 5544 5539 5533 5524 5523 5523 5523 5517 5510 5509 5504 5505 5506 5518 5525 5509 5496 5492 5479 5473 5476 5465 5488 5482 5472 5466 5460 5434 5420
5596 5591 5585 5578 5570 5565 5560 5554 5552 5548 5542 5536 5533 5532 5527 5525 5531 5536 5529 5529 5515 5508 5503 5514 5513 5506 5505 5491 5490 5491 5494 5508 5503 5507 5487 5480 5475 5470 5458 5464 5476 5455 5441 5438 5433 5433 5398
5591 5584 5579 5570 5562 5559 5553 5548 5544 5539 5534 5528 5525 5524 5521 5518 5521 5524 5518 5514 5509 5501 5494 5497 5498 5499 5495 5487 5490 5481 5480 5491 5486 5493 5492 5463 5450 5454 5449 5448 5455 5407 5418 5420 5441 5397 5373
5584 5577 5571 5560 5556 5551 5546 5540 5537 5531 5525 5521 5515 5515 5513 5508 5507 5512 5512 5507 5500 5499 5494 5495 5490 5486 5481 5473 5479 5476 5478 5479 5472 5472 5477 5472 5454 5441 5433 5430 5436 5387 5399 5398 5354 5357 5354
5575 5570 5563 5552 5548 5542 5538 5533 5528 5523 5516 5513 5508 5507 5503 5499 5497 5494 5493 5491 5491 5489 5487 5484 5482 5476 5468 5473 5465 5460 5460 5449 5447 5450 5443 5440 5413 5415 5405 5394 5368 5356 5348 5339 5334 5329 5324